Left ArrowRight Arrow

30.00354, -91.81873

Hourly Observations for April 7, 2019

Temp ( °F °C ) Dew Point ( °F °C ) Humidity (%) Winds ( mph kmh ) Pressure ( in mb ) Visibility ( mi km ) Precip ( " mm )
12:53 am 00:53 Cloudy 73 22.8 72 22.2 96 96 SSE 13 20 30.00 1016 10 16 0.00 0.00
1:53 am 01:53 Cloudy 73 22.8 72 22.2 96 96 SSE 16 26 30.00 1016 10 16 0.00 0.00
2:53 am 02:53 Cloudy 73 22.8 72 22.2 96 96 SSE 13 20 30.01 1016 10 16 0.00 0.00
3:19 am 03:19 Cloudy 73 22.8 73 22.8 100 100 SE 9 15 30.01 1016 10 16 0.00 0.00
3:53 am 03:53 Cloudy 73 22.8 73 22.8 100 100 SE 6 9 30.01 1016 10 16 0.00 0.00
4:27 am 04:27 Cloudy 74 23.3 73 22.8 97 97 SSE 9 15 30.00 1016 10 16 0.00 0.00
4:42 am 04:42 Cloudy 74 23.3 73 22.8 97 97 SE 12 19 30.00 1016 10 16 0.00 0.00
4:53 am 04:53 Cloudy 74 23.3 73 22.8 97 97 SE 10 17 29.99 1016 10 16 0.00 0.00
5:53 am 05:53 Cloudy 74 23.3 72 22.2 94 94 SE 8 13 30.00 1016 10 16 0.00 0.00
6:53 am 06:53 Cloudy 73 22.8 72 22.2 96 96 SE 13 20 30.00 1016 10 16 0.00 0.00
7:31 am 07:31 Cloudy 74 23.3 72 22.2 94 94 SE 12 19 30.01 1016 10 16 0.00 0.00
7:53 am 07:53 Mostly Cloudy 74 23.3 72 22.2 94 94 SE 12 19 30.01 1016 10 16 0.00 0.00
8:09 am 08:09 Cloudy 74 23.3 72 22.2 94 94 SE 10 17 30.01 1016 10 16 0.00 0.00
8:53 am 08:53 Mostly Cloudy 75 23.9 72 22.2 90 90 SE 18 30 29.98 1015 10 16 0.00 0.00
9:37 am 09:37 Cloudy 76 24.4 72 22.2 88 88 SE 23 37 29.97 1015 10 16 0.00 0.00
9:53 am 09:53 Mostly Cloudy with Light Rain 77 25 72 22.2 85 85 SE 22 35 29.96 1014 10 16 0.00 0.03
10:12 am 10:12 Partly Cloudy with Light Rain 78 25.6 72 22.2 82 82 SE 22 35 29.96 1014 10 16 0.00 0.03
10:19 am 10:19 Mostly Cloudy with Light Rain 79 26.1 72 22.2 79 79 SE 23 37 29.97 1015 10 16 0.00 0.03
10:26 am 10:26 Partly Cloudy 79 26.1 72 22.2 79 79 SSE 22 35 29.98 1015 10 16 0.00 0.03
10:53 am 10:53 Mostly Sunny 80 26.7 72 22.2 76 76 SSE 23 37 29.99 1016 10 16 0.00 0.03
11:53 am 11:53 Mostly Sunny 82 27.8 72 22.2 72 72 SSE 20 31 30.01 1016 10 16 0.00 0.00
12:53 pm 12:53 Mostly Cloudy 81 27.2 72 22.2 74 74 SSE 24 39 29.98 1015 10 16 0.00 0.00
1:00 pm 13:00 Mostly Cloudy with Nearby Thunderstorms 80 26.7 72 22.2 76 76 SE 22 35 29.97 1015 10 16 0.00 0.00
1:15 pm 13:15 Cloudy 81 27.2 72 22.2 74 74 SE 25 41 29.95 1014 10 16 0.00 0.00
1:53 pm 13:53 Cloudy 81 27.2 72 22.2 74 74 SSE 21 33 29.92 1013 10 16 0.00 0.00
2:03 pm 14:03 Mostly Cloudy 81 27.2 72 22.2 74 74 SE 23 37 29.92 1013 10 16 0.00 0.00
2:13 pm 14:13 Mostly Cloudy 80 26.7 72 22.2 76 76 SE 25 41 29.91 1013 10 16 0.00 0.00
2:53 pm 14:53 Mostly Cloudy 79 26.1 72 22.2 79 79 SSE 23 37 29.89 1012 10 16 0.00 0.00
3:04 pm 15:04 Partly Cloudy 79 26.1 72 22.2 79 79 SSE 20 31 29.88 1012 10 16 0.00 0.00
3:53 pm 15:53 Partly Cloudy 77 25 72 22.2 85 85 SSE 21 33 29.90 1012 10 16 0.00 0.00
4:26 pm 16:26 Mostly Cloudy 77 25 72 22.2 85 85 SSE 23 37 29.90 1012 10 16 0.00 0.00
4:53 pm 16:53 Cloudy 76 24.4 73 22.8 91 91 SSE 26 43 29.91 1013 10 16 0.00 0.00
5:00 pm 17:00 Cloudy with Nearby Thunderstorms 76 24.4 73 22.8 91 91 S 22 35 29.91 1013 10 16 0.01 0.25
5:15 pm 17:15 Cloudy 75 23.9 73 22.8 94 94 S 24 39 29.91 1013 10 16 0.03 0.76
5:30 pm 17:30 Cloudy with Nearby Thunderstorms 74 23.3 72 22.2 94 94 S 23 37 29.91 1013 10 16 0.04 1.02
5:34 pm 17:34 Cloudy with Thunderstorms 74 23.3 72 22.2 94 94 S 17 28 29.91 1013 10 16 0.07 1.78
5:45 pm 17:45 Cloudy with Thunderstorms 71 21.7 68 20 90 90 W 23 37 29.92 1013 10 16 0.27 6.86
5:47 pm 17:47 Cloudy with Thunderstorms 70 21 66 19 88 88 W 25 41 29.93 1013 9 14 0.35 8.89
5:53 pm 17:53 Cloudy with Thunderstorms 67 19.4 65 18.3 93 93 SW 16 26 29.93 1013 7 11 0.59 14.99
6:00 pm 18:00 Cloudy with Thunderstorms 66 18.9 65 18.3 96 96 WSW 14 22 29.92 1013 9 14 0.11 2.79
6:18 pm 18:18 Cloudy with Nearby Thunderstorms 66 18.9 65 18.3 96 96 WSW 9 15 29.92 1013 10 16 0.14 3.56
6:26 pm 18:26 Cloudy with Thunderstorms 67 19.4 65 18.3 93 93 SSW 9 15 29.94 1014 10 16 0.15 3.81
6:45 pm 18:45 Cloudy 67 19.4 65 18.3 93 93 S 7 11 29.93 1014 10 16 0.19 4.83
6:51 pm 18:51 Cloudy with Thunderstorms 66 19 64 18 94 94 S 6 9 29.92 1013 10 16 0.21 5.33
6:53 pm 18:53 Cloudy with Thunderstorms 66 18.9 65 18.3 96 96 SSW 7 11 29.92 1013 10 16 0.21 5.33
7:16 pm 19:16 Mostly Cloudy 66 18.9 65 18.3 96 96 SSE 6 9 29.90 1012 10 16 0.09 2.29
7:25 pm 19:25 Mostly Cloudy with Nearby Thunderstorms 67 19.4 65 18.3 93 93 S 7 11 29.90 1012 10 16 0.10 2.54
7:40 pm 19:40 Mostly Clear 66 18.9 65 18.3 96 96 ESE 7 11 29.86 1011 10 16 0.11 2.79
7:53 pm 19:53 Mostly Clear 66 18.9 65 18.3 96 96 E 9 15 29.83 1010 10 16 0.12 3.05
8:53 pm 20:53 Clear 66 18.9 65 18.3 96 96 SSE 9 15 29.88 1012 10 16 0.00 0.00
9:50 pm 21:50 Cloudy 66 19 64 18 94 94 SE 9 15 29.92 1013 10 16 0.00 0.00
9:53 pm 21:53 Cloudy 67 19.4 65 18.3 93 93 SE 9 15 29.92 1013 10 16 0.00 0.00
10:02 pm 22:02 Cloudy 67 19.4 65 18.3 93 93 ESE 8 13 29.92 1013 10 16 0.00 0.00
10:34 pm 22:34 Cloudy 67 19.4 65 18.3 93 93 E 3 6 29.93 1014 10 16 0.00 0.00
10:53 pm 22:53 Cloudy 66 18.9 65 18.3 96 96 E 6 9 29.92 1013 10 16 0.00 0.00
11:08 pm 23:08 Cloudy 66 18.9 65 18.3 96 96 ENE 5 7 29.93 1014 10 16 0.00 0.00
11:53 pm 23:53 Mostly Cloudy 66 18.9 65 18.3 96 96 E 9 15 29.92 1013 10 16 0.00 0.00

Powered by Vaisala Xweather